PDT,Max TemperatureF,Mean TemperatureF,Min TemperatureF,Max Dew PointF,MeanDew PointF,Min DewpointF,Max Humidity, Mean Humidity, Min Humidity, Max Sea Level PressureIn, Mean Sea Level PressureIn, Min Sea Level PressureIn, Max VisibilityMiles, Mean VisibilityMiles, Min VisibilityMiles, Max Wind SpeedMPH, Mean Wind SpeedMPH, Max Gust SpeedMPH,PrecipitationIn, CloudCover, Events, WindDirDegrees
2013-3-1,72,56,39,26,20,12,35,25,16,30.47,30.36,30.27,10,10,10,8,3,,0.00,0,,350
2013-3-2,73,59,45,30,28,25,48,30,19,30.34,30.19,29.99,10,10,10,12,5,,0.00,0,,44
2013-3-3,77,66,56,32,28,22,35,23,17,29.99,29.87,29.75,10,10,10,28,12,36,0.00,3,,189
2013-3-4,71,61,51,41,32,20,62,36,15,30.10,29.97,29.85,10,9,7,21,10,26,0.00,1,,42
2013-3-5,73,61,49,33,29,26,42,30,20,30.11,29.99,29.87,10,10,9,17,10,28,0.00,0,,104
2013-3-6,70,62,55,35,31,24,45,31,19,29.89,29.83,29.77,10,10,10,30,16,44,0.00,0,,196
2013-3-7,63,57,51,33,31,26,49,37,24,29.89,29.83,29.78,10,10,10,18,7,,0.00,1,,186
2013-3-8,55,50,44,45,40,32,87,73,41,29.83,29.75,29.66,10,10,7,28,6,37,0.16,6,Rain,187
2013-3-9,62,52,43,45,39,32,91,65,32,30.18,29.97,29.83,10,10,10,12,7,,0.00,4,,131
2013-3-10,67,56,45,33,26,16,57,34,15,30.32,30.23,30.16,10,10,10,18,7,22,0.00,0,,41
2013-3-11,72,56,40,34,30,24,75,42,17,30.25,30.15,30.05,10,10,10,7,2,,0.00,0,,356
2013-3-12,76,60,45,36,33,30,67,38,18,30.18,30.11,30.05,10,10,10,8,4,,0.00,0,,22
2013-3-13,81,64,48,37,33,26,66,35,13,30.26,30.16,30.08,10,10,10,9,2,,0.00,0,,31
2013-3-14,85,68,51,38,33,28,58,31,12,30.20,30.10,29.99,10,10,10,9,2,,0.00,0,,57
2013-3-15,83,69,56,36,33,30,43,28,15,30.01,29.90,29.78,10,10,10,10,4,,0.00,0,,22
2013-3-16,86,71,57,36,25,12,43,21,7,29.83,29.75,29.67,10,10,10,16,5,20,0.00,0,,4
2013-3-17,81,71,59,22,10,-1,22,11,4,29.90,29.79,29.68,10,10,10,25,13,33,0.00,0,,300
2013-3-18,76,66,56,16,11,8,18,12,7,30.01,29.90,29.84,10,10,10,14,6,,0.00,0,,68
2013-3-19,77,68,58,26,21,16,25,17,12,30.01,29.93,29.84,10,10,10,18,7,24,0.00,2,,51
2013-3-20,77,68,59,36,30,26,33,24,18,29.95,29.84,29.74,10,10,10,21,9,,0.00,1,,172
2013-3-21,80,64,50,32,20,3,47,21,5,29.85,29.76,29.66,10,10,10,21,7,30,0.00,0,,3
2013-3-22,74,64,54,18,4,-12,20,11,4,29.82,29.75,29.68,10,10,10,31,10,38,0.00,0,,6
2013-3-23,60,50,45,5,4,3,18,16,12,30.07,30.06,30.04,10,10,10,8,6,,0.00,0,,37
2013-3-24,69,54,40,13,7,0,27,15,7,30.12,30.02,29.91,10,10,10,12,6,,0.00,0,,56
2013-3-25,73,62,50,16,14,11,23,15,10,30.03,29.93,29.85,10,10,10,16,9,20,0.00,0,,59
2013-3-26,80,68,56,30,19,12,25,16,8,29.84,29.78,29.70,10,10,10,20,7,21,0.00,0,,110
2013-3-27,78,66,53,33,30,26,41,26,16,29.90,29.84,29.75,10,10,10,17,5,24,0.00,0,,166
2013-3-28,76,68,59,38,36,31,46,31,20,30.01,29.93,29.88,10,9,1,14,6,,0.00,0,,174
2013-3-29,82,68,53,33,31,29,41,26,15,30.07,30.00,29.93,10,10,10,9,4,,0.00,0,,78
2013-3-30,84,70,57,32,30,29,34,24,14,30.03,29.97,29.89,10,9,3,12,4,,0.00,2,,52
2013-3-31,81,68,55,38,33,26,40,26,15,29.94,29.86,29.78,10,10,10,23,8,30,0.00,0,,226